Location: Brienzwiler
(46.7508°N, 8.1014°E)
Time: 01:41:09
(UTC+00:00)

Helios 1A - Pass Details

Date: 05 July 2020
Orbit: 587 x 600 km, 98.2° (Epoch: 07 August)

Event Time Altitude Azimuth Distance (km) Brightness Sun altitude
Exits shadow 23:24:57 59° 171° (S) 683 2.9 -20.6°
Maximum altitude 23:25:43 87° 251° (WSW) 595 2.8 -20.6°
Drops below altitude 10° 23:29:54 10° 346° (NNW) 1,924 6.7 -20.6°
Sets 23:32:05 0° 347° (NNW) 2,831 7.9 -20.6°
